Weather History for Columbus, GA

Change the Weather History Date:

Monday, December 30, 2013

  Actual Average Record
Temperature  
Mean Temperature 44 °F 47 °F  
Max Temperature 52 °F 57 °F 80 °F (1984)
Min Temperature 36 °F 37 °F 15 °F (1961)
Degree Days  
Heating Degree Days 21 18  
Month to date heating degree days 408 478  
Since 1 July heating degree days 756 810  
Cooling Degree Days 0 0  
Month to date cooling degree days 17 0  
Year to date cooling degree days 2364 2364  
Growing Degree Days 0 (Base 50)    
Moisture  
Dew Point 39 °F    
Average Humidity 86    
Maximum Humidity 100    
Minimum Humidity 71    
Precipitation  
Precipitation 0.00 in 0.12 in 1.45 in (2007)
Month to date precipitation 8.87 4.15  
Year to date precipitation 62.65 46.63  
Snow  
Snow 0.00 in 0.00 in 0.00 in (2001)
Month to date snowfall 0.0 0.1  
Since 1 July snowfall 0.0 0.1  
Snow Depth 0.00 in    
Sea Level Pressure  
Sea Level Pressure 30.15 in    
Wind  
Wind Speed 1 mph (West)    
Max Wind Speed 7 mph    
Max Gust Speed 12 mph    
Visibility 5 miles    
Events Fog    
T = Trace of Precipitation, MM = Missing Value Source: NWS Daily Summary

Daily Weather History Graph

Daily Weather History Graph

Search for Another Location

Airport:

Trip Planner

Search our weather history database for the weather conditions in past years. The results will help you decide how hot, cold, wet, or windy it might be!

Date:

Astronomy

Dec. 30, 2013 Rise Set
Actual Time 7:41 AM EST 5:43 PM EST
Civil Twilight 7:13 AM EST 6:11 PM EST
Nautical Twilight 6:43 AM EST 6:41 PM EST
Astronomical Twilight 6:13 AM EST 7:11 PM EST
Moon 5:32 AM EST (12/30) 4:13 PM EST (12/30)
Length of Visible Light 10h 57m
Length of Day
10h 02m
Waning Crescent, 5% of the Moon is Illuminated
Dec 30
Waning Crescent
Jan 1
New
Jan 7
First Quarter
Jan 15
Full
Jan 24
Last Quarter

Hourly Weather History & Observations

Time (EST) Temp. Windchill Dew Point Humidity Pressure Visibility Wind Dir Wind Speed Gust Speed Precip Events Conditions
12:51 AM 41.0 °F 39.0 °F 39.9 °F 96% 30.08 in 9.0 mi SW 3.5 mph - N/A   Clear
1:51 AM 41.0 °F - 39.0 °F 93% 30.09 in 8.0 mi Calm Calm - N/A   Clear
2:51 AM 39.0 °F - 37.0 °F 93% 30.10 in 6.0 mi Calm Calm - N/A   Clear
3:51 AM 37.9 °F - 37.0 °F 97% 30.10 in 7.0 mi Calm Calm - N/A   Clear
4:51 AM 37.0 °F - 36.0 °F 96% 30.10 in 4.0 mi Calm Calm - N/A   Partly Cloudy
4:59 AM 37.4 °F - 35.6 °F 93% 30.10 in 2.0 mi Calm Calm - N/A   Mostly Cloudy
5:02 AM 37.4 °F - 35.6 °F 93% 30.11 in 0.8 mi Calm Calm - N/A   Mist
5:12 AM 37.4 °F - 35.6 °F 93% 30.11 in 0.2 mi Calm Calm - N/A Fog Fog
5:24 AM 37.4 °F - 35.6 °F 93% 30.11 in 1.0 mi Calm Calm - N/A   Mist
5:33 AM 35.6 °F - 35.6 °F 100% 30.11 in 8.0 mi Calm Calm - N/A   Scattered Clouds
5:51 AM 36.0 °F - 35.1 °F 97% 30.12 in 7.0 mi Calm Calm - N/A   Clear
6:51 AM 36.0 °F - 36.0 °F 100% 30.13 in 3.0 mi Calm Calm - N/A   Clear
7:02 AM 35.6 °F - 35.6 °F 100% 30.13 in 3.0 mi Calm Calm - N/A   Scattered Clouds
7:11 AM 35.6 °F - 35.6 °F 100% 30.13 in 3.0 mi Calm Calm - N/A   Mostly Cloudy
7:17 AM 35.6 °F - 35.6 °F 100% 30.13 in 1.8 mi Calm Calm - N/A   Mostly Cloudy
7:27 AM 35.6 °F - 35.6 °F 100% 30.13 in 0.5 mi Calm Calm - N/A Fog Fog
7:42 AM 37.4 °F - 35.6 °F 93% 30.14 in 0.2 mi Calm Calm - N/A Fog Fog
7:51 AM 37.0 °F - 36.0 °F 96% 30.15 in 0.2 mi Calm Calm - N/A Fog Fog
8:02 AM 37.4 °F - 37.4 °F 100% 30.16 in 0.8 mi Calm Calm - N/A   Overcast
8:28 AM 37.4 °F - 37.4 °F 100% 30.16 in 1.0 mi Calm Calm - N/A   Overcast
8:39 AM 37.4 °F - 37.4 °F 100% 30.16 in 0.8 mi Calm Calm - N/A   Overcast
8:51 AM 37.9 °F - 37.9 °F 100% 30.17 in 0.8 mi Calm Calm - N/A   Overcast
9:05 AM 37.4 °F 34.9 °F 37.4 °F 100% 30.17 in 1.8 mi SSW 3.5 mph - N/A   Mostly Cloudy
9:31 AM 39.2 °F - 39.2 °F 100% 30.17 in 2.5 mi Calm Calm - N/A   Mostly Cloudy
9:51 AM 41.0 °F - 39.9 °F 96% 30.20 in 3.0 mi Calm Calm - N/A   Partly Cloudy
10:51 AM 45.0 °F - 42.1 °F 90% 30.20 in 6.0 mi Calm Calm - N/A   Clear
11:51 AM 48.0 °F - 44.1 °F 86% 30.19 in 8.0 mi Calm Calm - N/A   Clear
12:51 PM 50.0 °F - 43.0 °F 77% 30.17 in 10.0 mi Calm Calm - N/A   Clear
1:51 PM 51.1 °F - 44.1 °F 77% 30.17 in 10.0 mi Calm Calm - N/A   Clear
2:51 PM 51.1 °F - 43.0 °F 74% 30.16 in 10.0 mi Calm Calm - N/A   Clear
3:51 PM 52.0 °F - 43.0 °F 71% 30.16 in 10.0 mi Calm Calm - N/A   Clear
4:51 PM 52.0 °F - 44.1 °F 74% 30.17 in 10.0 mi West 3.5 mph - N/A   Clear
5:51 PM 50.0 °F - 44.1 °F 80% 30.17 in 10.0 mi Calm Calm - N/A   Clear
6:51 PM 50.0 °F - 45.0 °F 83% 30.17 in 10.0 mi Calm Calm - N/A   Clear
7:51 PM 48.9 °F - 46.0 °F 90% 30.19 in 10.0 mi Calm Calm - N/A   Partly Cloudy
8:51 PM 50.0 °F - 46.0 °F 86% 30.21 in 10.0 mi WNW 4.6 mph - N/A   Overcast
9:51 PM 48.9 °F - 46.0 °F 90% 30.23 in 10.0 mi West 4.6 mph - N/A   Overcast
10:51 PM 48.9 °F - 45.0 °F 86% 30.23 in 10.0 mi West 4.6 mph - N/A   Overcast
11:51 PM 48.9 °F - 45.0 °F 86% 30.23 in 10.0 mi West 5.8 mph - N/A   Overcast